ARIANE 2 DEB, 42485

Orbit data source: Space-Track

ARIANE 2 DEB, 42485 is space debris in HEO originally from a launch on Fri, 27 Jan 1989 UTC launched from the French Guiana (FRGUI). Debris objects in space refer to the collection of defunct objects orbiting the Earth. Examples of debris include non-operational satellites, rocket bodies, and fragments generated from explosions, collisions, or faulty payload assembly.

Loading next visibility...
Identifier
42485, 1989-006CM
Orbit
HEO
Country
Flag of FRFR
Related business
Manufacturer
EADS/LV
Mission
Spacecraft
Bus & Motor
Unknown
Mass
Unknown
Launch date (UTC)
1989-01-27 (37 years ago)
Launch vehicle
Unknown
Launch site
French Guiana (FRGUI)
Object type
Payload
Rocket body
Debris
Shape & HBR
Unknown shape, 0.3 m
Radar Cross Section
Medium (>0.1 m² and <1 m²)

Expand to show TLE details & history
Last TLE update: 13 hours ago

TLE from 13 hours ago
0 ARIANE 2 DEB
1 42485U 89006CM  26095.43728666 -.00000175  00000-0  00000-0 0  9994
2 42485   8.6233  66.4940 6692236 128.0342 354.8943  2.17624673 96986
Epoch: 2026-04-05T10:29Z
TLE epoch observation values (Epoch: 2026-04-05T10:29:41.567Z)
Latitude
8.61697°
Longitude
169.95109°
Altitude
2,503.467 km
Speed
8.597 km/s
True Right ascension
10h 44m 28s
True Declination
8° 34' 34"
Sunlit
Object was in full shadow at epoch
Visualization orbit readout
Latitude
Unknown
Longitude
Unknown
Altitude
Unknown
Speed
Unknown
Apparent Right ascension
Unknown
Apparent Declination
Unknown
Sunlit
N/A
Visualization observer readout
Local Sidereal Time
05:04:12
Azimuth
Unknown
Elevation
Unknown
Doppler factor
Unknown
Orbital elements
Apogee altitude
35,615.395 km
Perigee altitude
1,943.378 km
Semi-major axis
25,157.524 km
Eccentricity
0.66922
Inclination
8.6233°
RAAN
66.494°
Arg. of periapsis
128.0342°
True anomaly
326.87239°
Mean anomaly
354.8943°
Eccentric anomaly
344.91582°
Mean motion
0.54393 °/min
Orbital period
661.85 mins
BSTAR
0
Loading maneuver chart data...
Computing Atmospheric mass density...
Loading historical data...
Loading historical data...
Loading historical data...
Loading historical data...
Loading historical data...
Loading historical data...
Loading historical data...

Documentation

Showing up to 5 results
|